Location: Praha
(50.0830°N, 14.4670°E)
Time: 18:55:50
(UTC+02:00)

ISS - Pass Details

Date: 17 July 2021
Orbit: 419 x 421 km, 51.6° (Epoch: 02 August)

Event Time Altitude Azimuth Distance (km) Brightness Sun altitude
Rises 02:59:06 0° 287° (WNW) 2,371 0.0 -14.6°
Reaches altitude 10° 03:01:19 10° 277° (W) 1,504 -1.1 -14.5°
Maximum altitude 03:04:23 33° 212° (SSW) 735 -3.1 -14.2°
Drops below altitude 10° 03:07:26 10° 147° (SSE) 1,496 -1.2 -14.0°
Sets 03:09:38 0° 137° (SE) 2,356 -0.1 -13.8°
